sat.trackr.live / text

‹ back to catalog

STARLINK-30263

NORAD 57642 · 2023-122L

PAYLOAD ACTIVE UNKNOWN

§ Identity

Operator
Country
US
Launch date
2023-08-17
Launch site
AFETR
Launch vehicle
Mass (kg)
RCS (m²)

Purposes: comms

External: N2YO · Heavens-Above · Gunter

§ Orbital elements

Epoch: 2026-05-25T00:26:01.927968Z

Period
94.27 min
Inclination
43.0055°
Eccentricity
0.0001025
Mean motion
15.27593723 rev/d
Perigee alt
482.3 km
Apogee alt
483.7 km
Semi-major
6,861.1 km
B*
5.4755e-5
RAAN
21.1633°
Arg perigee
269.4878°
Mean anomaly
90.5856°
Rev number
15,388

§ Raw data

STARLINK-302631 57642U 23122L   26145.01807787  .00001246  00000+0  54755-4 0  99922 57642  43.0055  21.1633 0001025 269.4878  90.5856 15.27593723153883

JSON: /api/v1/satellites/57642 · /tle

For live sub-satellite position, see the globe view (requires WebGL).

§ Visibility from observer

Set your observer location to see the next 7 days of passes ≥ 10°. The values pass through the URL so the page stays shareable.

No JS? Fill the form by hand. The geolocation button needs JavaScript.